sat.trackr.live / text

‹ back to catalog

STARLINK-2415

NORAD 47828 · 2021-018AT

PAYLOAD ACTIVE UNKNOWN

§ Identity

Operator
Country
US
Launch date
2021-03-11
Launch site
AFETR
Launch vehicle
Mass (kg)
RCS (m²)

Purposes: comms

External: N2YO · Heavens-Above · Gunter

§ Orbital elements

Epoch: 2026-09-15T21:57:15.209568Z

Period
94.01 min
Inclination
53.1600°
Eccentricity
0.0001345
Mean motion
15.31713085 rev/d
Perigee alt
469.8 km
Apogee alt
471.6 km
Semi-major
6,848.8 km
B*
1.4879e-4
RAAN
90.0339°
Arg perigee
82.0557°
Mean anomaly
278.0597°
Rev number
30,570

§ Raw data

STARLINK-24151 47828U 21018AT  26258.91475937  .00004257  00000+0  14879-3 0  99982 47828  53.1600  90.0339 0001345  82.0557 278.0597 15.31713085305707

JSON: /api/v1/satellites/47828 · /tle

For live sub-satellite position, see the globe view (requires WebGL).

§ Visibility from observer

Set your observer location to see the next 7 days of passes ≥ 10°. The values pass through the URL so the page stays shareable.

No JS? Fill the form by hand. The geolocation button needs JavaScript.